To NAV CANADA Home Page Login to a new session Search on AWWS site Feedback and Comments Disclaimer Vers la page française équivalente Tips FAQ What's new on the site To the Forecasts and Observations / NOTAM section To "File a Flight Plan" website Publications and other links Update of the User's profile FIC Telephone Numbers My Weather Data Folder Route Weather Data Regional Weather Data Local Weather Data To the Forecasts and Observations / NOTAM section
Request Generated 10/23/2016 at 01:28:38 UTC . Weather information available at that time is displayed.



LWIS CYKG 230100Z AUTO 03006KT M06/M11 A3035=
LWIS CYKG 230000Z AUTO 05010KT M06/M11 A3034=
LWIS CYKG 222300Z AUTO 03007KT M05/M10 A3035=

CYKG - No TAF is issued for this station

Your time UTC time
Weather data provided by Environment Canada and NAV CANADA